RYR1806 LPPR-EINN

Flight info

Callsign RYR1806
Flight time 1h 47m
Altitude 24000
Route TURON P600 ASDEB/N0439F360 DCT KORUL DCT TULTA/M076F360 DCT MAPAG/N0431F360 DCT KURUM KURUM2E
Aircraft B738/M-SDE2E3FGHIRWXY/LB1

Departure

Time 2026-05-08 15:50
Airport Francisco de Sá Carneiro Airport (LPPR)

Arrival

Time 2026-05-08 17:37
Airport Shannon Airport (EINN)
Time Latitude Longitude Altitude Speed Heading
2026-05-08 14:55 41.23791 -8.67369 243 ft 0 kts 49°
2026-05-08 14:56 41.23792 -8.67367 243 ft 0 kts 49°
2026-05-08 15:36 41.23792 -8.67368 243 ft 0 kts 49°
2026-05-08 15:36 41.23791 -8.67368 243 ft 0 kts 49°
2026-05-08 15:40 41.23779 -8.67387 241 ft 4 kts 49°
2026-05-08 15:41 41.23762 -8.67412 240 ft 2 kts 49°
2026-05-08 15:41 41.23746 -8.67434 238 ft 4 kts 31°
2026-05-08 15:41 41.23721 -8.67446 238 ft 4 kts
2026-05-08 15:41 41.23707 -8.67445 237 ft 1 kts 349°
2026-05-08 15:44 41.23719 -8.67448 237 ft 5 kts 349°
2026-05-08 15:44 41.23782 -8.67465 238 ft 13 kts 349°
2026-05-08 15:45 41.23882 -8.67491 238 ft 15 kts 349°
2026-05-08 15:45 41.23985 -8.67518 237 ft 15 kts 349°
2026-05-08 15:45 41.24085 -8.67544 237 ft 14 kts 349°
2026-05-08 15:45 41.24180 -8.67568 237 ft 14 kts 349°
2026-05-08 15:46 41.24260 -8.67632 234 ft 16 kts 309°
2026-05-08 15:46 41.24370 -8.67723 226 ft 23 kts 347°
2026-05-08 15:46 41.24551 -8.67772 216 ft 29 kts 348°
2026-05-08 15:46 41.24736 -8.67821 210 ft 25 kts 348°
2026-05-08 15:47 41.24899 -8.67916 200 ft 27 kts 343°
2026-05-08 15:47 41.25083 -8.67966 193 ft 27 kts 349°
2026-05-08 15:47 41.25261 -8.68013 181 ft 26 kts 349°
2026-05-08 15:47 41.25439 -8.68060 175 ft 25 kts 349°
2026-05-08 15:48 41.25660 -8.68128 169 ft 9 kts 323°
2026-05-08 15:48 41.25676 -8.68207 169 ft 9 kts 261°
2026-05-08 15:48 41.25664 -8.68289 170 ft 9 kts 259°
2026-05-08 15:49 41.25627 -8.68339 171 ft 9 kts 178°
2026-05-08 15:49 41.25556 -8.68322 173 ft 21 kts 168°
2026-05-08 15:49 41.25169 -8.68221 184 ft 91 kts 169°
2026-05-08 15:49 41.24348 -8.68006 211 ft 149 kts 168°
2026-05-08 15:50 41.23259 -8.67709 730 ft 160 kts 171°
2026-05-08 15:50 41.22180 -8.67441 1597 ft 165 kts 171°
2026-05-08 15:50 41.20933 -8.67144 1901 ft 196 kts 169°
2026-05-08 15:50 41.19569 -8.66765 2488 ft 200 kts 168°
2026-05-08 15:51 41.18173 -8.66360 3052 ft 209 kts 168°
2026-05-08 15:51 41.16681 -8.65941 3419 ft 233 kts 168°
2026-05-08 15:51 41.15032 -8.65338 3841 ft 252 kts 155°
2026-05-08 15:51 41.13684 -8.63839 4618 ft 260 kts 127°
2026-05-08 15:52 41.12938 -8.61654 5483 ft 265 kts 107°
2026-05-08 15:52 41.12869 -8.59174 6208 ft 277 kts 80°
2026-05-08 15:52 41.13683 -8.56832 6967 ft 287 kts 54°
2026-05-08 15:52 41.15213 -8.55086 7683 ft 296 kts 27°
2026-05-08 15:53 41.17186 -8.54326 8459 ft 300 kts
2026-05-08 15:53 41.19280 -8.54283 9197 ft 302 kts 356°
2026-05-08 15:53 41.21396 -8.54389 9902 ft 307 kts 357°
2026-05-08 15:53 41.23578 -8.54477 10273 ft 324 kts 357°
2026-05-08 15:54 41.25902 -8.54550 10520 ft 343 kts 358°
2026-05-08 15:54 41.28320 -8.54613 11047 ft 351 kts 358°
2026-05-08 15:54 41.30772 -8.54671 11772 ft 353 kts 358°
2026-05-08 15:54 41.33233 -8.54726 12521 ft 355 kts 357°
2026-05-08 15:55 41.35711 -8.54780 13255 ft 359 kts 357°
2026-05-08 15:55 41.40762 -8.54890 14655 ft 366 kts 357°
2026-05-08 15:55 41.43291 -8.54945 15361 ft 369 kts 357°
2026-05-08 15:56 41.45873 -8.55001 16035 ft 374 kts 357°
2026-05-08 15:56 41.48489 -8.55058 16765 ft 377 kts 357°
2026-05-08 15:56 41.51124 -8.55115 17485 ft 380 kts 357°
2026-05-08 15:56 41.53794 -8.55173 18147 ft 385 kts 357°
2026-05-08 15:57 41.56488 -8.55232 18742 ft 389 kts 357°
2026-05-08 15:57 41.59203 -8.55294 19366 ft 392 kts 357°
2026-05-08 15:57 41.61937 -8.55354 19979 ft 395 kts 357°
2026-05-08 15:57 41.64696 -8.55414 20568 ft 398 kts 357°
2026-05-08 15:58 41.67474 -8.55474 21167 ft 402 kts 357°
2026-05-08 15:58 41.70278 -8.55534 21793 ft 403 kts 356°
2026-05-08 15:58 41.73101 -8.55595 22378 ft 406 kts 356°
2026-05-08 15:58 41.75941 -8.55658 22919 ft 410 kts 356°
2026-05-08 15:59 41.78802 -8.55722 23472 ft 413 kts 356°
2026-05-08 15:59 41.81687 -8.55786 23946 ft 416 kts 356°
2026-05-08 15:59 41.84592 -8.55851 24419 ft 419 kts 356°
2026-05-08 15:59 41.87514 -8.55915 24876 ft 422 kts 356°
2026-05-08 16:00 41.90416 -8.55979 25366 ft 423 kts 356°
2026-05-08 16:00 41.93366 -8.56045 25843 ft 425 kts 356°
2026-05-08 16:00 41.96335 -8.56111 26265 ft 428 kts 356°
2026-05-08 16:00 41.99326 -8.56177 26673 ft 432 kts 356°
2026-05-08 16:01 42.02336 -8.56243 27074 ft 434 kts 356°
2026-05-08 16:01 42.05359 -8.56311 27454 ft 437 kts 356°
2026-05-08 16:01 42.08397 -8.56232 27839 ft 442 kts
2026-05-08 16:01 42.11464 -8.55808 28311 ft 443 kts
2026-05-08 16:02 42.14524 -8.55277 28774 ft 445 kts
2026-05-08 16:02 42.17599 -8.54724 29132 ft 447 kts
2026-05-08 16:02 42.20698 -8.54179 29458 ft 451 kts
2026-05-08 16:02 42.23817 -8.53649 29801 ft 453 kts
2026-05-08 16:03 42.26963 -8.53134 30111 ft 455 kts
2026-05-08 16:03 42.30114 -8.52629 30372 ft 458 kts
2026-05-08 16:03 42.33291 -8.52124 30649 ft 461 kts
2026-05-08 16:03 42.36479 -8.51616 30978 ft 462 kts
2026-05-08 16:04 42.39666 -8.51107 31333 ft 462 kts
2026-05-08 16:04 42.42865 -8.50595 31653 ft 464 kts
2026-05-08 16:04 42.46072 -8.50081 31984 ft 464 kts
2026-05-08 16:04 42.49284 -8.49545 32282 ft 466 kts
2026-05-08 16:05 42.52463 -8.48552 32567 ft 471 kts 15°
2026-05-08 16:05 42.55508 -8.46873 32897 ft 474 kts 24°
2026-05-08 16:05 42.58483 -8.44928 33198 ft 475 kts 25°
2026-05-08 16:05 42.61455 -8.42935 33467 ft 477 kts 25°
2026-05-08 16:06 42.64424 -8.40936 33766 ft 478 kts 25°
2026-05-08 16:06 42.67408 -8.38939 34051 ft 478 kts 25°
2026-05-08 16:06 42.70389 -8.36961 34357 ft 478 kts 25°
2026-05-08 16:06 42.73378 -8.34990 34769 ft 473 kts 25°
2026-05-08 16:07 42.76319 -8.33058 35288 ft 466 kts 25°
2026-05-08 16:07 42.79238 -8.31144 35559 ft 466 kts 25°
2026-05-08 16:07 42.82171 -8.29222 35695 ft 469 kts 25°
2026-05-08 16:07 42.85121 -8.27286 35816 ft 472 kts 25°
2026-05-08 16:08 42.91052 -8.23388 35872 ft 473 kts 25°
2026-05-08 16:08 42.96931 -8.19512 35881 ft 467 kts 26°
2026-05-08 16:09 43.01781 -8.16308 35879 ft 464 kts 26°
2026-05-08 16:09 43.08513 -8.11852 35859 ft 461 kts 26°
2026-05-08 16:10 43.14282 -8.08025 35866 ft 459 kts 26°
2026-05-08 16:10 43.20027 -8.04205 35874 ft 459 kts 26°
2026-05-08 16:11 43.25784 -8.00368 35876 ft 460 kts 26°
2026-05-08 16:11 43.31555 -7.96515 35873 ft 461 kts 26°
2026-05-08 16:12 43.37336 -7.92647 35879 ft 463 kts 27°
2026-05-08 16:12 43.43133 -7.88759 35884 ft 464 kts 27°
2026-05-08 16:13 43.48942 -7.84855 35883 ft 465 kts 27°
2026-05-08 16:13 43.54772 -7.80929 35878 ft 466 kts 27°
2026-05-08 16:14 43.60567 -7.77018 35882 ft 467 kts 27°
2026-05-08 16:14 43.66409 -7.73068 35879 ft 467 kts 27°
2026-05-08 16:15 43.72241 -7.69115 35876 ft 467 kts 27°
2026-05-08 16:15 43.78077 -7.65149 35874 ft 466 kts 27°
2026-05-08 16:16 43.83889 -7.61192 35873 ft 464 kts 27°
2026-05-08 16:16 43.89669 -7.57250 35867 ft 462 kts 27°
2026-05-08 16:17 43.94449 -7.53983 35866 ft 460 kts 27°
2026-05-08 16:17 44.01142 -7.49397 35882 ft 457 kts 28°
2026-05-08 16:18 44.06839 -7.45483 35873 ft 456 kts 28°
2026-05-08 16:18 44.12517 -7.41574 35878 ft 455 kts 28°
2026-05-08 16:19 44.18148 -7.37691 35876 ft 454 kts 28°
2026-05-08 16:19 44.23808 -7.33779 35875 ft 454 kts 29°
2026-05-08 16:20 44.29460 -7.29866 35871 ft 453 kts 29°
2026-05-08 16:20 44.35117 -7.25938 35879 ft 453 kts 30°
2026-05-08 16:21 44.40765 -7.22007 35868 ft 454 kts 30°
2026-05-08 16:21 44.46414 -7.18066 35864 ft 454 kts 30°
2026-05-08 16:22 44.51106 -7.14789 35871 ft 454 kts 30°
2026-05-08 16:22 44.57715 -7.10162 35873 ft 455 kts 30°
2026-05-08 16:23 44.63372 -7.06193 35874 ft 455 kts 30°
2026-05-08 16:23 44.69034 -7.02210 35875 ft 455 kts 30°
2026-05-08 16:24 44.74663 -6.98241 35875 ft 456 kts 30°
2026-05-08 16:24 44.80356 -6.94306 35869 ft 458 kts 24°
2026-05-08 16:25 44.83442 -6.93107 35877 ft 463 kts 11°
2026-05-08 16:25 44.86666 -6.92819 35871 ft 467 kts 359°
2026-05-08 16:25 44.93097 -6.94306 35878 ft 469 kts 350°
2026-05-08 16:26 44.98462 -6.95870 35870 ft 470 kts 350°
2026-05-08 16:26 45.04825 -6.97694 35869 ft 470 kts 350°
2026-05-08 16:27 45.11239 -6.99468 35868 ft 470 kts 351°
2026-05-08 16:27 45.17664 -7.01218 35858 ft 470 kts 351°
2026-05-08 16:28 45.24081 -7.02964 35865 ft 469 kts 351°
2026-05-08 16:28 45.30495 -7.04716 35870 ft 469 kts 351°
2026-05-08 16:29 45.36907 -7.06473 35867 ft 470 kts 351°
2026-05-08 16:29 45.43334 -7.08239 35874 ft 470 kts 351°
2026-05-08 16:30 45.49782 -7.10013 35860 ft 473 kts 351°
2026-05-08 16:30 45.56244 -7.11796 35869 ft 473 kts 351°
2026-05-08 16:31 45.62701 -7.13583 35862 ft 473 kts 351°
2026-05-08 16:31 45.69163 -7.15376 35862 ft 473 kts 351°
2026-05-08 16:32 45.75625 -7.17171 35851 ft 473 kts 351°
2026-05-08 16:32 45.82082 -7.18970 35859 ft 472 kts 351°
2026-05-08 16:33 45.88534 -7.20773 35860 ft 472 kts 351°
2026-05-08 16:33 45.94979 -7.22576 35854 ft 472 kts 351°
2026-05-08 16:34 46.01423 -7.24385 35859 ft 472 kts 351°
2026-05-08 16:34 46.07866 -7.26197 35858 ft 472 kts 351°
2026-05-08 16:35 46.14309 -7.28013 35863 ft 472 kts 351°
2026-05-08 16:35 46.20711 -7.29822 35857 ft 472 kts 351°
2026-05-08 16:36 46.27148 -7.31647 35855 ft 472 kts 351°
2026-05-08 16:36 46.33594 -7.33477 35854 ft 472 kts 351°
2026-05-08 16:37 46.40045 -7.35311 35858 ft 473 kts 350°
2026-05-08 16:37 46.46499 -7.37154 35857 ft 473 kts 350°
2026-05-08 16:38 46.52959 -7.39002 35854 ft 473 kts 350°
2026-05-08 16:38 46.59430 -7.40859 35856 ft 473 kts 350°
2026-05-08 16:39 46.65898 -7.42717 35858 ft 474 kts 350°
2026-05-08 16:39 46.72368 -7.44581 35852 ft 475 kts 350°
2026-05-08 16:40 46.78850 -7.46451 35851 ft 475 kts 350°
2026-05-08 16:40 46.85339 -7.48331 35859 ft 475 kts 350°
2026-05-08 16:41 46.91820 -7.50210 35863 ft 475 kts 350°
2026-05-08 16:42 47.01498 -7.53029 35859 ft 474 kts 350°
2026-05-08 16:42 47.07971 -7.54920 35859 ft 474 kts 350°
2026-05-08 16:43 47.14434 -7.56813 35865 ft 473 kts 350°
2026-05-08 16:43 47.20891 -7.58708 35857 ft 473 kts 349°
2026-05-08 16:44 47.27336 -7.60604 35863 ft 472 kts 349°
2026-05-08 16:44 47.33769 -7.62501 35869 ft 471 kts 349°
2026-05-08 16:45 47.40195 -7.64401 35883 ft 471 kts 349°
2026-05-08 16:45 47.46623 -7.66306 35882 ft 471 kts 349°
2026-05-08 16:46 47.53043 -7.68215 35875 ft 469 kts 349°
2026-05-08 16:46 47.59437 -7.70120 35885 ft 468 kts 349°
2026-05-08 16:47 47.65804 -7.72017 35898 ft 466 kts 349°
2026-05-08 16:47 47.72153 -7.73919 35888 ft 465 kts 349°
2026-05-08 16:48 47.78490 -7.75795 35889 ft 464 kts 349°
2026-05-08 16:48 47.84764 -7.77695 35897 ft 462 kts 349°
2026-05-08 16:49 47.91061 -7.79550 35905 ft 462 kts 349°
2026-05-08 16:49 47.97358 -7.81454 35898 ft 463 kts 348°
2026-05-08 16:50 48.03670 -7.83418 35909 ft 464 kts 348°
2026-05-08 16:50 48.10017 -7.85357 35917 ft 467 kts 348°
2026-05-08 16:51 48.16390 -7.87302 35914 ft 469 kts 348°
2026-05-08 16:51 48.22790 -7.89256 35922 ft 470 kts 348°
2026-05-08 16:52 48.29206 -7.91218 35919 ft 471 kts 348°
2026-05-08 16:52 48.35620 -7.93186 35921 ft 470 kts 348°
2026-05-08 16:53 48.45230 -7.96147 35925 ft 469 kts 348°
2026-05-08 16:53 48.51570 -7.98105 35930 ft 467 kts 348°
2026-05-08 16:54 48.57934 -8.00062 35934 ft 466 kts 349°
2026-05-08 16:54 48.64334 -8.01495 35942 ft 464 kts 353°
2026-05-08 16:55 48.70741 -8.02662 35942 ft 463 kts 353°
2026-05-08 16:55 48.77132 -8.03850 35946 ft 462 kts 353°
2026-05-08 16:56 48.83509 -8.05088 35952 ft 462 kts 352°
2026-05-08 16:56 48.89892 -8.06355 35953 ft 462 kts 352°
2026-05-08 16:57 48.96273 -8.07628 35956 ft 463 kts 352°
2026-05-08 16:57 49.02659 -8.08902 35967 ft 463 kts 352°
2026-05-08 16:58 49.09027 -8.10175 35966 ft 464 kts 352°
2026-05-08 16:58 49.15475 -8.11472 35969 ft 465 kts 352°
2026-05-08 16:59 49.21855 -8.12756 35968 ft 466 kts 352°
2026-05-08 16:59 49.28292 -8.14055 35971 ft 467 kts 351°
2026-05-08 17:00 49.34746 -8.15359 35980 ft 468 kts 352°
2026-05-08 17:00 49.41207 -8.16669 35981 ft 469 kts 351°
2026-05-08 17:01 49.47684 -8.17984 35990 ft 470 kts 351°
2026-05-08 17:01 49.54172 -8.19307 35983 ft 470 kts 351°
2026-05-08 17:02 49.60661 -8.20633 35989 ft 471 kts 351°
2026-05-08 17:02 49.67110 -8.21955 35987 ft 470 kts 351°
2026-05-08 17:03 49.73588 -8.23283 35993 ft 469 kts 351°
2026-05-08 17:03 49.80056 -8.24616 35996 ft 469 kts 351°
2026-05-08 17:04 49.86515 -8.25952 36001 ft 468 kts 351°
2026-05-08 17:04 49.92971 -8.27289 36009 ft 467 kts 351°
2026-05-08 17:05 49.99416 -8.28628 36003 ft 467 kts 351°
2026-05-08 17:05 50.05843 -8.29968 36015 ft 466 kts 351°
2026-05-08 17:06 50.12271 -8.31309 36011 ft 465 kts 351°
2026-05-08 17:06 50.18672 -8.32649 36002 ft 463 kts 350°
2026-05-08 17:07 50.21858 -8.33317 35656 ft 460 kts 350°
2026-05-08 17:07 50.25007 -8.33976 35343 ft 454 kts 350°
2026-05-08 17:07 50.28123 -8.34630 34958 ft 451 kts 350°
2026-05-08 17:07 50.31179 -8.35275 34597 ft 447 kts 350°
2026-05-08 17:08 50.34258 -8.35923 34227 ft 445 kts 350°
2026-05-08 17:08 50.37318 -8.36567 33840 ft 442 kts 350°
2026-05-08 17:08 50.40356 -8.37211 33434 ft 440 kts 350°
2026-05-08 17:08 50.43385 -8.37853 33044 ft 437 kts 350°
2026-05-08 17:09 50.46380 -8.38489 32664 ft 434 kts 350°
2026-05-08 17:09 50.49366 -8.39124 32305 ft 431 kts 350°
2026-05-08 17:09 50.52328 -8.39754 31955 ft 428 kts 350°
2026-05-08 17:09 50.55270 -8.40380 31596 ft 425 kts 350°
2026-05-08 17:10 50.58189 -8.41003 31263 ft 423 kts 349°
2026-05-08 17:10 50.61060 -8.41615 30918 ft 420 kts 349°
2026-05-08 17:10 50.63950 -8.42232 30571 ft 417 kts 349°
2026-05-08 17:10 50.66826 -8.42848 30229 ft 415 kts 349°
2026-05-08 17:11 50.69683 -8.43460 29849 ft 413 kts 349°
2026-05-08 17:11 50.72520 -8.44068 29451 ft 410 kts 349°
2026-05-08 17:11 50.75331 -8.44670 29083 ft 406 kts 349°
2026-05-08 17:11 50.78123 -8.45269 28737 ft 402 kts 349°
2026-05-08 17:12 50.80884 -8.45863 28368 ft 399 kts 349°
2026-05-08 17:12 50.83630 -8.46456 28025 ft 396 kts 349°
2026-05-08 17:12 50.86349 -8.47043 27667 ft 394 kts 349°
2026-05-08 17:12 50.89056 -8.47627 27317 ft 392 kts 349°
2026-05-08 17:13 50.91747 -8.48209 26968 ft 389 kts 349°
2026-05-08 17:13 50.94427 -8.48789 26623 ft 388 kts 349°
2026-05-08 17:13 50.97089 -8.49367 26280 ft 386 kts 349°
2026-05-08 17:13 50.99749 -8.49954 25935 ft 383 kts 347°
2026-05-08 17:14 51.02341 -8.50854 25593 ft 380 kts 341°
2026-05-08 17:14 51.04882 -8.51973 25272 ft 379 kts 340°
2026-05-08 17:14 51.07382 -8.53139 24915 ft 379 kts 339°
2026-05-08 17:14 51.09910 -8.54330 24565 ft 379 kts 339°
2026-05-08 17:15 51.11614 -8.55128 24328 ft 378 kts 339°
2026-05-08 17:15 51.14955 -8.56676 23857 ft 377 kts 340°
2026-05-08 17:15 51.17478 -8.57833 23487 ft 377 kts 340°
2026-05-08 17:15 51.19989 -8.58977 23077 ft 375 kts 340°
2026-05-08 17:16 51.22500 -8.60117 22706 ft 373 kts 340°
2026-05-08 17:16 51.24987 -8.61244 22347 ft 371 kts 340°
2026-05-08 17:16 51.27458 -8.62363 22017 ft 368 kts 340°
2026-05-08 17:16 51.29092 -8.63104 21781 ft 367 kts 340°
2026-05-08 17:17 51.31534 -8.64213 21440 ft 365 kts 340°
2026-05-08 17:17 51.33969 -8.65319 21099 ft 362 kts 340°
2026-05-08 17:17 51.36389 -8.66421 20769 ft 360 kts 340°
2026-05-08 17:17 51.38787 -8.67513 20431 ft 358 kts 340°
2026-05-08 17:18 51.41177 -8.68604 20095 ft 356 kts 341°
2026-05-08 17:18 51.43552 -8.69688 19768 ft 354 kts 341°
2026-05-08 17:18 51.45919 -8.70769 19437 ft 353 kts 341°
2026-05-08 17:18 51.48274 -8.71846 19117 ft 351 kts 341°
2026-05-08 17:19 51.50620 -8.72921 18797 ft 350 kts 341°
2026-05-08 17:19 51.52960 -8.73994 18472 ft 349 kts 341°
2026-05-08 17:19 51.55284 -8.75060 18115 ft 348 kts 341°
2026-05-08 17:19 51.57611 -8.76129 17756 ft 346 kts 341°
2026-05-08 17:20 51.59919 -8.77189 17415 ft 344 kts 342°
2026-05-08 17:20 51.62218 -8.78246 17091 ft 342 kts 342°
2026-05-08 17:20 51.64496 -8.79296 16766 ft 339 kts 342°
2026-05-08 17:20 51.66753 -8.80340 16450 ft 337 kts 342°
2026-05-08 17:21 51.68983 -8.81370 16141 ft 335 kts 342°
2026-05-08 17:21 51.71225 -8.82407 15826 ft 333 kts 342°
2026-05-08 17:21 51.73447 -8.83435 15521 ft 331 kts 343°
2026-05-08 17:21 51.75654 -8.84456 15213 ft 329 kts 343°
2026-05-08 17:22 51.77850 -8.85474 14909 ft 327 kts 343°
2026-05-08 17:22 51.80036 -8.86490 14606 ft 326 kts 343°
2026-05-08 17:22 51.82206 -8.87498 14301 ft 324 kts 343°
2026-05-08 17:22 51.84366 -8.88502 14002 ft 322 kts 343°
2026-05-08 17:23 51.86490 -8.89491 13685 ft 321 kts 344°
2026-05-08 17:23 51.88659 -8.90503 13363 ft 319 kts 344°
2026-05-08 17:23 51.90783 -8.91493 13048 ft 317 kts 344°
2026-05-08 17:23 51.92869 -8.92466 12750 ft 315 kts 345°
2026-05-08 17:24 51.94991 -8.93458 12450 ft 313 kts 344°
2026-05-08 17:24 51.97072 -8.94432 12164 ft 310 kts 344°
2026-05-08 17:24 51.99145 -8.95403 11876 ft 309 kts 345°
2026-05-08 17:24 52.01202 -8.96367 11592 ft 307 kts 345°
2026-05-08 17:25 52.03248 -8.97327 11309 ft 305 kts 345°
2026-05-08 17:25 52.05276 -8.98279 11032 ft 303 kts 345°
2026-05-08 17:25 52.07270 -8.99216 10753 ft 302 kts 345°
2026-05-08 17:25 52.09282 -9.00163 10442 ft 301 kts 346°
2026-05-08 17:26 52.11310 -9.01118 10126 ft 296 kts 346°
2026-05-08 17:26 52.13230 -9.02024 9832 ft 287 kts 346°
2026-05-08 17:26 52.15123 -9.02918 9541 ft 282 kts 346°
2026-05-08 17:26 52.17002 -9.03805 9277 ft 280 kts 346°
2026-05-08 17:27 52.18866 -9.04684 8999 ft 278 kts 346°
2026-05-08 17:27 52.20722 -9.05561 8741 ft 277 kts 345°
2026-05-08 17:27 52.22568 -9.06435 8493 ft 276 kts 345°
2026-05-08 17:27 52.24407 -9.07307 8231 ft 275 kts 346°
2026-05-08 17:28 52.26240 -9.08176 7979 ft 274 kts 346°
2026-05-08 17:28 52.28069 -9.09043 7723 ft 273 kts 346°
2026-05-08 17:28 52.29890 -9.09907 7473 ft 273 kts 346°
2026-05-08 17:28 52.31717 -9.10778 7213 ft 273 kts 346°
2026-05-08 17:29 52.33535 -9.11643 6964 ft 272 kts 346°
2026-05-08 17:29 52.35356 -9.12510 6704 ft 272 kts 346°
2026-05-08 17:29 52.37164 -9.13372 6453 ft 270 kts 346°
2026-05-08 17:29 52.38967 -9.14233 6183 ft 269 kts 346°
2026-05-08 17:30 52.40760 -9.15089 5928 ft 268 kts 346°
2026-05-08 17:30 52.42545 -9.15942 5684 ft 267 kts 345°
2026-05-08 17:30 52.44303 -9.16786 5445 ft 268 kts 346°
2026-05-08 17:30 52.46095 -9.17642 5154 ft 266 kts 346°
2026-05-08 17:31 52.47847 -9.18481 4908 ft 257 kts 346°
2026-05-08 17:31 52.49528 -9.19288 4646 ft 247 kts 346°
2026-05-08 17:31 52.51145 -9.20065 4449 ft 237 kts 346°
2026-05-08 17:31 52.52703 -9.20814 4297 ft 230 kts 346°
2026-05-08 17:32 52.54220 -9.21542 4188 ft 223 kts 347°
2026-05-08 17:32 52.55711 -9.21743 4053 ft 211 kts 18°
2026-05-08 17:32 52.56830 -9.20439 4028 ft 195 kts 51°
2026-05-08 17:32 52.57704 -9.18777 3793 ft 191 kts 46°
2026-05-08 17:33 52.58578 -9.17187 3551 ft 184 kts 50°
2026-05-08 17:33 52.59372 -9.15578 3295 ft 179 kts 51°
2026-05-08 17:33 52.60125 -9.13976 3078 ft 175 kts 52°
2026-05-08 17:33 52.60865 -9.12398 2837 ft 175 kts 52°
2026-05-08 17:34 52.61598 -9.10837 2579 ft 174 kts 52°
2026-05-08 17:34 52.62327 -9.09278 2355 ft 170 kts 51°
2026-05-08 17:34 52.63041 -9.07755 2108 ft 165 kts 52°
2026-05-08 17:34 52.63726 -9.06288 1895 ft 159 kts 52°
2026-05-08 17:35 52.64392 -9.04868 1678 ft 157 kts 52°
2026-05-08 17:35 52.65057 -9.03450 1469 ft 155 kts 51°
2026-05-08 17:35 52.65717 -9.02041 1261 ft 157 kts 52°
2026-05-08 17:35 52.66379 -9.00633 1047 ft 152 kts 51°
2026-05-08 17:36 52.67003 -8.99300 844 ft 140 kts 51°
2026-05-08 17:36 52.67618 -8.97982 627 ft 145 kts 51°
2026-05-08 17:36 52.68215 -8.96637 449 ft 147 kts 48°
2026-05-08 17:36 52.68855 -8.95335 250 ft 144 kts 47°
2026-05-08 17:37 52.69459 -8.94059 54 ft 141 kts 49°
2026-05-08 17:37 52.69990 -8.92935 36 ft 104 kts 52°
2026-05-08 17:37 52.70341 -8.92187 33 ft 61 kts 52°
2026-05-08 17:37 52.70546 -8.91751 26 ft 42 kts 52°
2026-05-08 17:38 52.70684 -8.91461 24 ft 25 kts 52°
2026-05-08 17:38 52.70764 -8.91293 25 ft 10 kts 52°
2026-05-08 17:38 52.70764 -8.91191 26 ft 10 kts 130°
2026-05-08 17:38 52.70698 -8.91153 23 ft 12 kts 169°
2026-05-08 17:39 52.70576 -8.91115 22 ft 23 kts 168°
2026-05-08 17:39 52.70400 -8.91061 22 ft 26 kts 169°
2026-05-08 17:39 52.70227 -8.91006 23 ft 24 kts 174°
2026-05-08 17:39 52.70077 -8.91074 22 ft 23 kts 199°
2026-05-08 17:40 52.69907 -8.91168 21 ft 29 kts 199°
2026-05-08 17:40 52.69715 -8.91275 21 ft 29 kts 198°
2026-05-08 17:40 52.69533 -8.91375 21 ft 26 kts 198°
2026-05-08 17:40 52.69390 -8.91454 22 ft 17 kts 198°
2026-05-08 17:41 52.69299 -8.91504 21 ft 11 kts 198°
2026-05-08 17:41 52.69259 -8.91580 23 ft 10 kts 285°
2026-05-08 17:41 52.69300 -8.91674 23 ft 10 kts 309°
2026-05-08 17:41 52.69354 -8.91740 21 ft 10 kts 342°
2026-05-08 17:42 52.69410 -8.91773 23 ft 8 kts 325°
2026-05-08 17:42 52.69439 -8.91843 22 ft 7 kts 289°
2026-05-08 17:42 52.69449 -8.91923 21 ft 7 kts 255°
2026-05-08 17:42 52.69412 -8.91948 21 ft 4 kts 184°
2026-05-08 17:43 52.69385 -8.91951 21 ft 3 kts 184°
2026-05-08 17:43 52.69371 -8.91953 22 ft 2 kts 184°
2026-05-08 17:43 52.69365 -8.91954 24 ft 0 kts 184°